Home > Time Zones > World Clock > Weather > Iran > Rasht > Past weeks

Flag for Iran Weather past 2 weeks in Rasht, Iran

Now
75 °F

Light rain. More clouds than sun.


Feels Like: 74 °F
Forecast: 74 / 85 °F
Wind: 7 mph from West

Location: Rasht Airport

Current Time: Aug 31, 2014 at 1:16:43 PM

Latest Report: Aug 31, 2014 at 12:30 PM


Visibility: 2 mi

Pressure: 29.98 "Hg

Humidity: 94%

Dew point: 73 °F

Location of RashtLocation

Historic Weather in Rasht — Graph

°F

Rasht temperature yesterday

Maximum temperature yesterday: 91 °F (at 2:30 PM)
Minimum temperature yesterday: 77 °F (at 4:30 AM)
Average temperature yesterday: 84 °F

Past Weeks' High & Low Weather Summary

 TemperatureHumidityPressure
High99 °F (Aug 28, 1:30 PM)100% (Aug 20, 6:00 AM)29.98 "Hg (Aug 20, 6:00 AM)
Low68 °F (Aug 29, 6:30 AM)25% (Aug 28, 1:30 PM)29.65 "Hg (Aug 18, 4:30 PM)
Average85 °F70%29.82 "Hg
* Reported Aug 16 12:30 PM — Aug 31 12:30 PM, Rasht, Weather by CustomWeather, © 2014

Note: Actual official high and low records may vary slightly from our data, if they occured in-between our weather recording intervals... More about our weather records

Advertising

Rasht weather history for previous 24 hours

 ConditionsComfort  
Time TempWeatherWind HumidityBarometerVisibility
12:30 PM
Aug 31
75 °FLight rain. More clouds than sun.7 mph94%29.98 "Hg2 mi
11:30 AM73 °FLight rain. More clouds than sun.9 mph100%29.98 "Hg1 mi
11:00 AM73 °FLight rain. More clouds than sun.12 mph100%29.98 "Hg2 mi
10:30 AM73 °FLight rain. More clouds than sun.9 mph100%29.98 "Hg3 mi
10:00 AM73 °FLight rain. More clouds than sun.9 mph100%29.98 "Hg2 mi
9:30 AM73 °FLight rain. More clouds than sun.7 mph100%29.98 "Hg2 mi
9:00 AM73 °FLight rain. More clouds than sun.5 mph94%29.95 "Hg1 mi
8:30 AM75 °FLight rain. More clouds than sun.7 mph89%29.95 "Hg1 mi
8:00 AM75 °FFog.7 mph89%29.95 "Hg2 mi
7:30 AM75 °FFog.5 mph89%29.95 "Hg2 mi
7:00 AM75 °FSprinkles. Mostly cloudy.7 mph89%29.95 "Hg2 mi
6:30 AM75 °FSprinkles. Mostly cloudy.5 mph89%29.95 "Hg4 mi
5:30 AM77 °FPartly cloudy.5 mph83%29.95 "Hg4 mi
4:30 AM77 °FSprinkles. Partly cloudy.5 mph89%29.92 "Hg4 mi
3:30 AM77 °FFog.2 mph89%29.92 "Hg3 mi
2:30 AM77 °FSprinkles. Partly cloudy.2 mph89%29.92 "Hg3 mi
12:30 AM79 °FFog.5 mph89%29.95 "Hg3 mi
11:30 PM
Aug 30
79 °FFog.2 mph94%29.95 "Hg3 mi
9:30 PM81 °FPassing clouds.No wind84%29.92 "Hg3 mi
8:30 PM82 °FBroken clouds.2 mph79%29.92 "Hg4 mi
8:00 PM82 °FScattered clouds.2 mph74%29.92 "Hg4 mi
7:30 PM82 °FScattered clouds.5 mph74%29.92 "Hg4 mi
7:00 PM84 °FPassing clouds.7 mph70%29.92 "HgN/A
6:30 PM86 °FScattered clouds.9 mph66%29.89 "HgN/A
6:00 PM86 °FScattered clouds.9 mph66%29.89 "HgN/A
5:30 PM86 °FScattered clouds.7 mph66%29.89 "HgN/A
5:00 PM88 °FScattered clouds.9 mph66%29.89 "HgN/A
4:30 PM88 °FScattered clouds.12 mph66%29.89 "HgN/A
4:00 PM90 °FScattered clouds.9 mph59%29.89 "HgN/A
3:30 PM90 °FScattered clouds.12 mph59%29.89 "HgN/A
3:00 PM91 °FScattered clouds.12 mph56%29.89 "HgN/A
2:30 PM91 °FScattered clouds.7 mph56%29.89 "HgN/A
2:00 PM90 °FScattered clouds.7 mph59%29.89 "HgN/A
1:30 PM88 °FSprinkles. Scattered clouds.7 mph62%29.89 "Hg4 mi
1:00 PM88 °FScattered clouds.7 mph66%29.89 "Hg4 mi
Weather by CustomWeather, © 2014

See weather overviewHow to use our weather pages